Tracking 31027 objects as of 19-Jul-2025
HD Live streaming from Space Station
objects crossing your sky now

FENGYUN 1C DEB

Track FENGYUN 1C DEB now!
10-day predictions


NORAD ID: 31823
Int'l Code: 1999-025CHM
Perigee: 666.2 km
Apogee: 721.7 km
Inclination: 99.5 °
Period: 98.5 minutes
Semi major axis: 7064 km
RCS: 0.0046 m2 (small)
Launch date: May 10, 1999
Source: People's Republic of China (PRC)
Launch site: Taiyaun Space Center, China (TSC)

Note: This is SATELLITE DEBRIS
Your satellite tracking list
ST5-A
Track 1 satellite(s)




NASA's NSSDC Master Catalog

Two Line Element Set (TLE):
1 31823U 99025CHM 25199.12059036  .00001989  00000-0  40498-3 0  9999
2 31823  99.5202 262.7074 0039289 304.5282  55.2208 14.61981136945582
Source of the keplerian elements: AFSPC